Back to catalog

COSMOS 1275 DEB

AlivePO
NORAD 42221·DEBRIS·🇷🇺 Russia

Launched Jun 4, 1981 from Plesetsk Cosmodrome

Loading…

Next Passes (next 24 hours)

TLE

AgingSource: Space-Track

Epoch: Sep 5, 2026, 03:30 UTC

1 42221U 81053UM  26248.14585599  .00000615  00000-0  56429-3 0  9997
2 42221  82.8995 195.1472 0080988   7.8904 352.3507 13.79975932642242

Track COSMOS 1275 DEB in real time with AllMySat

Download on the App Store